KONDOR FKA NO.2

导读

KONDOR-FKA №2(秃鹰-FKA2)是独联体(CIS,实际为俄罗斯)开发的小型民用雷达地球遥感观测卫星,莫斯科时间2024年11月30日由“联盟-2.1a”火箭从东方发射场发射,最终进入500-550km高的工作轨道。卫星重约1050公斤,设计寿命5年,采用S波段合成孔径雷达,可在全天气条件下获取最高1-2米分辨率的地表图像,本次发射完成了“秃鹰-FKA”系列组网。

基本信息
目录编号:
62138
目录名称:
KONDOR FKA 2
国际标识:
2024-223A
轨道中心:
EARTH
卫星名称:
KONDOR FKA 2
卫星全名:
KONDOR FKA NO.2
卫星状态:
在轨 (已飞行654 天)
发射日期:
2024-11-29 UTC
国别 :
俄罗斯(独联体) (CIS)
星等 :
--
该卫星已列入 空间交会检测服务 Space Conjunction Data Service (SCDS) ,当前飞行风险评估等级: 无高风险
轨道信息
数据来源 国际轨道数据 AOE轨道数据
星历时间 2026-09-14T04:53:06+0800
9小时前
查看轨道信息
2026-09-13T01:00:00+0800
1天前
查看轨道信息
半长轴 6884.853km 6884.854km
偏心率 0.0001747 0.0001679
轨道倾角 97.443° 97.444°
近地点辐角 88.756° 96.023°
升交点赤经 99.035° 97.887°
平近点角 271.387° 31.641°
近地点 505.513km 505.561km
远地点 507.919km 507.873km
周期 94.755分钟 94.755分钟
每日圈数 15.197103 15.197099
详细信息
使用方式:
暂无
2D轨道图
3D轨道图
轨道高度分析图
轨道倾角分析图
轨道综合分析图
查看轨道综合分析图
交会数据列表
事件ID 空间交会对象 最接近时刻(TCA) 交会距离 交会风险概率(CRP) 交会风险指数(CRI) 操作
CDM_260916-171703-636506-213821
2026-09-16T
17:17:43+0000
1.582 km
极远距离
5.304702E-6 低风险 0.49
CDM_260915-162605-991706-213823
OBJECT A (59917)
2026-09-15T
16:26:52+0000
2.141 km
极远距离
2.445998E-6 低风险 0.43
CDM_260914-064106-213806-837425
2026-09-14T
06:41:23+0000
2.693 km
极远距离
1.576554E-6 低风险 0.39
与全量物体交会距离演化趋势 订阅飞行安全评估服务
与全量物体交会风险概率演化趋势 订阅飞行安全评估服务